sat.trackr.live / text

‹ back to catalog

JILIN-1 GAOFEN 2D

NORAD 49256 · 2021-086A

PAYLOAD ACTIVE UNKNOWN

§ Identity

Operator
Country
PRC
Launch date
2021-09-27
Launch site
JSC
Launch vehicle
Mass (kg)
RCS (m²)

External: N2YO · Heavens-Above · Gunter

§ Orbital elements

Epoch: 2026-09-10T04:52:37.223904Z

Period
95.47 min
Inclination
97.6573°
Eccentricity
0.0029572
Mean motion
15.08392028 rev/d
Perigee alt
520.7 km
Apogee alt
561.6 km
Semi-major
6,919.2 km
B*
1.8475e-4
RAAN
15.9056°
Arg perigee
233.7287°
Mean anomaly
126.1208°
Rev number
27,355

§ Raw data

JILIN-1 GAOFEN 2D1 49256U 21086A   26253.20320861  .00002835  00000+0  18475-3 0  99982 49256  97.6573  15.9056 0029572 233.7287 126.1208 15.08392028273558

JSON: /api/v1/satellites/49256 · /tle

For live sub-satellite position, see the globe view (requires WebGL).

§ Visibility from observer

Set your observer location to see the next 7 days of passes ≥ 10°. The values pass through the URL so the page stays shareable.

No JS? Fill the form by hand. The geolocation button needs JavaScript.

§ Radio — SatNOGS DB

ModeDescriptionDownlinkUplink
BPSK S-band telemetry 2.219 GHz

1 transmitter · refreshed weekly from db.satnogs.org